THORAD DELTA 1 DEB, 42622

Orbit data source: Space-Track

THORAD DELTA 1 DEB, 42622 is space debris in SSO originally from a launch on Fri, 15 Nov 1974 UTC launched from the Air Force Western Test Range (AFWTR). Debris objects in space refer to the collection of defunct objects orbiting the Earth. Examples of debris include non-operational satellites, rocket bodies, and fragments generated from explosions, collisions, or faulty payload assembly.

Loading next visibility...
Identifier
42622, 1974-089GP
Orbit
SSO
Country
Flag of USUS
Related business
Manufacturer
Unknown
Mission
Spacecraft
Bus & Motor
Unknown
Mass
Unknown
Launch date (UTC)
1974-11-15 (51 years ago)
Launch vehicle
Unknown
Launch site
Air Force Western Test Range (AFWTR)
Object type
Payload
Rocket body
Debris
Shape & HBR
Unknown shape, 0.1 m
Radar Cross Section
Small (<0.1 m²)

Expand to show TLE details & history
Last TLE update: 2 days ago

TLE from 2 days ago
0 THORAD DELTA 1 DEB
1 42622U 74089GP  25284.87417844  .00000070  00000-0  96945-3 0  9991
2 42622 101.4483  68.1252 0154290 232.6209 285.1693 12.24251553531326
Epoch: 2025-10-11T20:58Z
TLE epoch observation values (Epoch: 2025-10-11T20:58:49.017Z)
Latitude
23.44094°
Longitude
-82.26558°
Altitude
1,546.258 km
Speed
7.109 km/s
True Right ascension
16h 52m 33s
True Declination
23° 19' 41"
Sunlit
Object was in daylight at epoch
Visualization orbit readout
Latitude
Unknown
Longitude
Unknown
Altitude
Unknown
Speed
Unknown
Apparent Right ascension
Unknown
Apparent Declination
Unknown
Sunlit
N/A
Visualization observer readout
Local Sidereal Time
18:22:35
Azimuth
Unknown
Elevation
Unknown
Doppler factor
Unknown
Orbital elements
Apogee altitude
1,694.297 km
Perigee altitude
1,448.983 km
Semi-major axis
7,949.777 km
Eccentricity
0.01543
Inclination
101.4483°
RAAN
68.1252°
Arg. of periapsis
232.6209°
True anomaly
283.45447°
Mean anomaly
285.1693°
Eccentric anomaly
284.31272°
Mean motion
3.06204 °/min
Orbital period
117.57 mins
BSTAR
0.00096945
Loading maneuver chart data...
Computing Atmospheric mass density...

Documentation

Showing up to 5 results
|